SCP
0 0 0 0 0 -0 0 0 0 0 0 0 0 0 0 0 -0 0 0 0 0 0 0 0 0 0 0 0 -0 -0 0 0 0 -0 0 -0 -0 -0 -0 0 0 0 0 0
0 0 0 0 0 0 0 0 0 0 0 0 0 -0 0 0 0 0 -0 0 0 0 0 0 0 0 0 0 0 0 0 0 0 0 0 0 -0 -0 -0 0 0 0 0 0
0 0 0 0 0 0 0 0 0 0 0 0 0 0 -0 0 0 0 0 0 0 0 0 0 0 0 0 0 0 0 0 -0 0 0 -0 0 -0 0 0 0 0 0 0 0
0 0 0 0 0 0 0 0 0 0 0 0 0 0 0 0 0 0 0 0 0 0 0 0 0 0 0 0 0 0 0 0 0 0 0 0 0 0 0 -0 0 0 0 0
-0 0 0 0 0 0 0 0 0 0 0 0 -0 0 0 -0 -0 -0 -0 0 0 0 0 0 0 0 0 0 0 0 0 0 0 -0 -0 0 0 0 0 -0 0 0 0 -0
-0 0 0 0 0 0 0 0 0 0 0 0 0 0 0 0 0 0 0 0 -0 0 0 -0 -0 0 0 0 0 -0 0 0 0 -0 -0 -0 0 -0 -0 0 0 0 0 0
-0 -0 0 0 0 0 0 0 0 0 0 0 -0 -0 -0 0 0 0 0 0 0 -0 0 -0 0 -0 0 0 0 0 0 0 0 0 0 0 0 -0 0 0 0 0 0 0
-0 -0 0 0 0 0 0 0 0 0 0 0 0 -0 0 -0 0 0 0 0 0 0 0 0 0 0 0 0 0 -0 -0 0 0 0 0 0 0 0 0 0 0 0 0 0
-0 -0 0 0 0 0 0 0 0 0 0 0 0 0 0 0 0 0 0 -0 0 0 0 0 0 0 0 0 0 0 0 0 0 0 0 0 0 0 0 0 0 0 0 0
-0 0 0 0 0 0 0 0 0 0 0 0 -0 0 0 1 0 0 -0 -0 0 0 0 0 0 0 0 0 0 0 0 0 0 0 0 0 0 0 0 0 0 0 0 0
0 0 0 0 0 0 0 0 0 0 0 0 0 0 0 0 0 -0 0 1 0 0 0 0 0 0 0 0 0 -0 0 0 -0 0 1 1 0 0 0 0 0 0 0 0
0 0 0 0 0 0 0 0 0 0 0 0 0 0 0 0 0 0 0 1 1 0 1 0 0 1 0 0 0 0 0 0 0 1 1 0 0 0 0 0 0 0 0 0
0 0 0 0 0 0 0 0 0 0 0 0 0 0 0 -0 0 0 0 0 0 0 0 0 0 0 1 1 1 1 1 2 0 0 -0 0 0 0 0 0 0 0 0 0
0 0 0 0 0 0 0 0 0 0 0 0 0 -0 -0 0 0 0 0 0 0 0 -0 0 1 0 0 0 0 1 1 0 1 0 -0 -0 0 0 0 0 0 0 0 0
0 0 0 0 0 0 0 0 0 0 0 0 0 0 0 0 0 0 0 0 0 0 -0 0 0 0 0 -0 0 0 0 0 0 0 0 1 0 0 0 0 0 0 0 0
0 0 0 0 0 0 0 0 0 0 0 0 0 0 0 0 0 0 0 0 0 0 0 0 0 -0 0 0 0 0 0 0 0 0 0 0 0 0 0 0 0 0 0 0
0 0 0 0 0 0 0 0 0 0 0 0 0 0 0 0 0 0 0 0 0 1 0 0 0 0 0 0 0 0 0 0 0 0 0 0 0 0 0 0 0 0 0 0
0 0 0 0 0 0 0 0 0 0 0 0 0 0 0 0 0 0 0 0 0 0 1 2 1 0 1 1 0 0 -0 0 0 0 0 0 0 0 0 0 0 0 0 0
0 0 0 0 0 0 0 0 0 0 0 0 0 0 0 0 0 0 0 1 0 0 0 0 0 0 0 1 1 0 0 0 0 0 0 0 0 0 0 0 0 0 0 0
0 0 0 0 0 0 0 0 0 0 0 0 0 0 0 0 0 0 0 0 1 0 0 0 0 -0 1 0 0 0 0 0 0 0 0 0 0 0 0 0 0 0 0 0
0 0 0 0 0 0 0 0 0 0 0 0 0 0 0 0 0 0 0 0 0 0 -0 0 0 0 1 1 2 1 0 0 0 0 0 0 0 0 0 0 0 0 0 0
0 0 0 0 0 0 0 0 0 0 0 0 0 0 0 0 0 0 0 0 0 0 0 0 0 1 2 2 1 0 1 0 0 0 0 0 0 0 0 0 0 0 0 0
0 0 0 0 0 0 0 0 0 0 0 0 0 0 1 0 0 1 0 0 0 0 0 0 0 2 2 2 1 0 0 0 0 0 0 0 0 0 0 0 0 0 0 0
0 0 0 0 0 0 0 0 0 0 0 0 0 0 0 0 1 0 1 0 0 0 0 0 1 1 1 1 1 0 0 0 0 0 0 0 0 0 0 0 0 0 0 0
0 0 0 0 0 0 0 0 0 0 0 0 0 0 0 0 0 0 0 0 0 0 0 0 2 1 1 1 0 0 0 0 0 0 0 0 0 0 0 0 0 0 0 0
0 0 0 0 0 0 0 0 0 0 0 0 0 0 0 0 0 0 0 0 0 0 1 1 1 0 1 1 1 1 0 0 0 0 0 0 0 0 0 0 0 0 0 0
0 0 0 0 0 0 0 0 0 0 0 0 0 0 0 0 0 0 0 0 1 2 1 0 0 0 0 1 0 0 0 0 0 0 0 0 0 0 0 0 0 0 0 0
Wind_Speed_500mb
46 48 52 49 34 29 13 18 15 21 28 24 31 26 41 56 50 19 25 33 32 29 41 44 43 34 36 41 47 46 49 28 26 53 39 35 33 39 35 17 19 12 11 1
51 46 38 34 25 28 30 14 26 16 30 17 24 36 42 47 43 17 30 28 23 33 28 31 36 31 31 28 31 33 39 36 21 19 32 25 36 29 34 13 16 14 7 10
35 31 31 23 21 19 20 14 8 16 35 41 40 30 35 40 51 30 31 27 33 25 33 27 28 38 27 26 35 33 47 39 26 17 28 18 50 32 30 22 10 13 11 13
27 28 27 19 17 18 13 14 17 32 16 28 33 39 41 36 41 37 36 33 36 36 29 31 30 26 34 36 31 32 32 10 11 26 34 19 14 13 26 47 14 22 36 28
25 26 21 16 15 17 16 14 26 34 50 22 33 33 40 39 36 44 40 31 34 37 35 32 25 32 37 33 30 38 36 19 30 44 55 12 33 24 31 49 9 15 46 39
21 26 26 18 10 7 14 26 28 23 25 32 20 27 38 40 27 35 29 31 30 35 42 52 43 39 44 30 31 39 39 29 20 25 35 32 19 37 56 12 11 13 19 32
16 19 25 26 13 11 18 23 33 21 23 29 29 27 42 40 35 26 41 38 30 38 42 48 38 44 40 37 38 45 37 34 18 16 30 23 17 17 10 18 18 14 15 22
16 18 21 27 22 15 19 16 19 26 22 38 39 43 36 45 50 39 20 70 33 27 25 23 27 27 29 29 45 44 43 33 19 10 10 9 14 10 12 10 22 15 26 22
25 26 28 32 28 17 19 19 16 23 25 14 29 25 53 15 19 31 39 42 25 34 18 22 26 25 32 28 40 47 46 34 23 7 11 8 7 19 34 13 21 18 28 21
33 31 32 34 31 18 18 14 4 24 43 61 30 14 33 44 27 17 62 31 21 34 25 26 27 30 34 36 45 35 33 11 22 23 12 13 30 23 20 13 15 17 18 19
43 28 26 28 28 16 14 10 9 22 34 63 49 32 41 35 30 13 60 22 15 21 29 20 20 20 24 23 38 42 28 29 32 7 11 13 14 23 6 11 19 18 15 19
39 42 26 25 24 14 10 9 7 21 35 53 52 60 56 40 27 13 40 29 23 26 7 11 10 10 6 32 25 25 16 7 3 10 11 19 6 27 13 15 18 16 21 29
33 40 34 30 24 17 18 28 17 28 40 57 46 48 37 30 28 22 30 9 14 24 21 5 9 10 9 9 11 16 12 25 13 19 14 35 47 17 16 25 23 24 24 27
30 33 36 38 27 21 22 25 15 14 23 18 29 29 33 16 15 15 20 17 13 17 13 12 7 2 34 18 15 11 6 28 27 26 46 38 31 29 30 31 30 31 29 26
30 31 37 41 29 23 22 26 24 20 16 15 41 42 23 22 15 11 12 13 16 21 3 16 4 11 13 29 30 9 14 14 13 16 47 23 39 35 35 36 35 32 33 29
29 32 36 40 32 17 16 6 2 14 19 17 9 14 23 30 20 15 8 7 4 11 7 8 29 50 27 8 8 21 38 31 39 33 28 49 45 38 36 38 36 32 30 26
30 32 36 39 34 19 16 9 14 28 20 11 10 10 23 30 27 26 16 4 4 4 4 11 11 3 6 2 6 30 31 28 40 39 44 43 39 40 37 37 34 32 28 26
31 34 36 38 22 17 19 18 13 12 11 15 9 11 28 36 25 20 19 16 14 0 9 15 10 14 4 4 31 32 27 36 37 33 26 32 36 40 38 37 34 31 29 28
30 34 28 13 10 9 13 20 14 15 15 15 12 16 10 44 32 28 25 25 9 4 9 7 18 7 10 20 43 37 34 26 33 20 30 36 40 41 38 34 31 29 27 26
29 16 6 11 12 15 5 5 8 12 18 18 13 38 3 25 46 16 19 25 4 9 12 52 9 35 39 46 38 39 27 21 27 33 36 41 40 39 35 31 26 26 26 27
8 7 6 5 1 5 12 13 10 18 12 21 33 42 3 29 24 17 24 9 13 16 28 21 14 15 21 38 39 33 27 20 21 27 33 35 38 37 33 28 25 26 27 26
12 19 19 8 8 12 11 13 8 10 21 21 35 44 34 56 19 20 13 10 10 9 19 8 11 9 39 42 36 32 28 28 30 33 38 36 35 32 29 27 27 28 29 29
8 8 7 9 13 11 13 17 10 10 25 27 41 28 30 7 12 10 8 15 7 3 6 10 1 34 35 38 37 34 34 36 40 39 38 36 35 30 29 29 30 32 29 25
7 7 9 10 13 14 15 19 19 25 31 23 44 38 23 12 10 6 9 10 6 14 14 22 18 39 42 38 36 40 43 43 42 41 40 37 34 32 30 32 34 31 28 24
6 8 10 17 32 22 21 13 21 16 29 22 39 27 31 16 11 9 5 7 11 12 18 5 47 49 51 46 44 45 48 45 43 40 39 36 35 34 34 32 30 28 26 23
7 12 13 27 28 18 26 4 19 23 51 16 28 12 9 12 8 10 11 11 12 12 14 40 48 47 47 52 49 52 49 46 43 38 36 36 36 35 34 31 28 26 24 22
9 16 25 39 36 30 15 16 9 19 3 12 9 4 11 8 10 15 10 21 19 37 41 35 46 54 53 50 55 54 50 45 43 41 38 35 33 34 34 33 28 25 22 21
Wind_Direction_500mb
303 309 314 316 319 326 318 279 265 174 170 192 221 230 242 259 277 186 261 283 293 257 226 198 232 208 213 198 223 207 234 249 228 203 204 212 239 220 234 245 250 68 14 126
303 312 314 321 326 335 339 270 233 184 189 224 225 226 249 252 255 245 205 255 267 291 249 216 202 238 215 184 218 201 229 243 225 210 199 198 225 231 247 288 51 31 54 1
311 315 317 322 319 321 329 279 224 165 210 239 267 257 216 244 247 254 248 270 287 256 274 251 207 226 214 191 224 228 234 261 175 189 230 303 211 226 319 183 95 301 74 172
322 319 320 319 309 307 315 242 254 360 193 225 234 258 262 211 240 227 242 246 262 262 246 246 227 219 229 201 202 239 235 197 73 11 307 72 64 66 334 316 84 195 125 113
342 336 328 325 307 297 262 284 329 343 297 218 208 242 262 267 218 229 210 234 236 233 259 243 215 217 232 204 201 220 224 188 146 186 240 141 123 128 264 274 14 34 131 158
4 347 342 333 306 325 282 322 328 303 289 282 246 217 242 260 243 223 235 246 219 230 230 241 227 214 217 188 208 204 220 226 214 186 186 168 203 182 207 131 69 57 70 115
351 351 338 334 318 278 304 304 322 291 277 260 255 235 218 232 249 239 244 237 257 238 222 247 235 230 218 188 204 207 211 224 235 221 207 192 77 72 156 80 74 54 103 107
307 317 329 327 322 295 291 294 297 294 280 281 303 292 219 209 225 242 268 294 227 248 274 270 250 245 208 183 195 203 206 217 228 174 224 17 50 70 145 136 112 111 107 111
288 294 298 310 319 308 285 288 289 272 287 252 317 336 330 238 224 240 234 241 236 245 256 233 232 229 175 185 191 210 211 211 227 158 131 143 346 307 36 4 93 98 112 130
326 292 296 305 312 313 292 273 290 283 278 271 310 34 310 318 351 341 310 206 197 217 240 226 220 227 193 180 196 200 219 191 243 234 203 77 169 219 282 286 108 104 125 141
339 325 313 310 312 310 286 235 233 286 289 285 285 279 290 317 33 34 283 305 244 210 227 244 229 212 188 147 198 230 208 178 230 175 110 115 358 321 313 110 138 127 122 133
332 337 311 310 307 301 263 280 307 294 278 272 291 283 275 264 256 206 283 298 359 20 346 43 1 324 253 191 193 210 189 115 91 61 133 164 208 236 120 158 129 136 140 135
321 330 331 313 301 296 263 263 285 319 294 293 271 265 283 243 251 249 259 74 342 30 53 59 42 301 323 36 310 123 86 76 119 111 167 164 165 170 143 137 135 128 133 135
312 320 324 323 301 291 277 268 236 295 294 285 269 247 243 247 233 245 242 278 295 290 90 101 90 346 13 18 290 337 27 140 117 113 164 162 145 155 135 126 131 132 132 139
306 310 316 324 310 293 287 273 248 242 263 308 308 309 257 227 213 227 223 229 267 295 256 100 71 21 51 250 210 270 43 286 137 111 155 150 149 142 141 138 136 135 128 122
298 304 310 319 317 293 339 270 289 222 245 281 277 307 229 208 203 222 220 256 203 244 228 93 139 160 192 270 130 135 354 68 105 117 128 132 137 140 142 138 135 132 128 127
294 299 303 312 314 273 239 270 194 205 185 246 263 232 217 204 199 218 232 244 214 110 234 208 139 192 90 62 336 85 92 110 111 111 121 125 136 138 137 135 130 128 128 127
295 300 305 308 290 259 267 254 255 188 233 256 265 257 163 194 202 202 233 282 278 30 95 1 274 146 60 351 123 151 126 118 120 118 132 140 137 136 134 134 138 136 133 130
303 302 306 273 234 224 205 238 266 244 230 295 240 251 206 181 190 198 180 184 235 244 117 341 23 194 193 201 139 150 148 145 147 126 135 142 143 142 144 148 147 143 141 142
309 308 226 215 145 223 265 193 179 210 218 233 256 252 348 196 191 145 190 198 188 196 194 133 141 261 138 142 150 148 155 145 157 142 147 148 148 151 155 156 152 151 154 152
345 287 336 342 171 191 206 211 206 213 215 215 241 245 161 275 203 158 193 196 215 181 209 181 184 220 142 134 139 147 154 159 164 157 152 156 155 155 158 155 148 151 155 154
316 300 304 283 230 220 240 183 181 250 228 203 211 225 182 245 209 177 202 191 197 252 134 181 224 75 127 135 143 151 155 155 152 150 152 151 153 155 155 149 151 154 151 150
292 258 266 217 206 235 224 187 183 219 223 204 193 215 217 151 208 72 161 234 195 216 182 193 76 128 133 137 145 149 152 151 143 146 145 148 147 149 150 150 153 150 149 154
244 245 245 229 196 223 220 213 198 221 297 189 192 198 215 154 188 142 296 195 226 196 218 225 144 146 142 144 147 151 146 142 146 145 145 146 144 144 148 153 152 151 153 157
259 244 239 229 246 280 246 169 157 174 264 205 192 193 193 181 218 161 237 175 188 206 218 54 133 147 147 148 153 150 143 144 146 147 147 145 144 148 150 151 150 154 155 156
251 240 263 270 291 291 328 226 129 164 250 207 216 206 181 208 196 131 217 193 211 210 124 128 140 147 149 150 149 143 145 148 147 146 146 146 150 153 151 150 153 156 158 158
247 245 255 278 290 282 303 321 325 257 232 181 176 275 175 40 292 151 218 218 99 105 120 138 148 150 151 149 144 144 146 147 145 146 147 149 150 152 152 153 156 158 159 158
Wind_Speed_850mb
46 48 52 49 34 29 13 18 15 21 28 24 31 26 41 56 50 19 25 33 32 29 41 44 43 34 36 41 47 46 49 28 26 53 39 35 33 39 35 17 19 12 11 1
51 46 38 34 25 28 30 14 26 16 30 17 24 36 42 47 43 17 30 28 23 33 28 31 36 31 31 28 31 33 39 36 21 19 32 25 36 29 34 13 16 14 7 10
35 31 31 23 21 19 20 14 8 16 35 41 40 30 35 40 51 30 31 27 33 25 33 27 28 38 27 26 35 33 47 39 26 17 28 18 50 32 30 22 10 13 11 13
27 28 27 19 17 18 13 14 17 32 16 28 33 39 41 36 41 37 36 33 36 36 29 31 30 26 34 36 31 32 32 10 11 26 34 19 14 13 26 47 14 22 36 28
25 26 21 16 15 17 16 14 26 34 50 22 33 33 40 39 36 44 40 31 34 37 35 32 25 32 37 33 30 38 36 19 30 44 55 12 33 24 31 49 9 15 46 39
21 26 26 18 10 7 14 26 28 23 25 32 20 27 38 40 27 35 29 31 30 35 42 52 43 39 44 30 31 39 39 29 20 25 35 32 19 37 56 12 11 13 19 32
16 19 25 26 13 11 18 23 33 21 23 29 29 27 42 40 35 26 41 38 30 38 42 48 38 44 40 37 38 45 37 34 18 16 30 23 17 17 10 18 18 14 15 22
16 18 21 27 22 15 19 16 19 26 22 38 39 43 36 45 50 39 20 70 33 27 25 23 27 27 29 29 45 44 43 33 19 10 10 9 14 10 12 10 22 15 26 22
25 26 28 32 28 17 19 19 16 23 25 14 29 25 53 15 19 31 39 42 25 34 18 22 26 25 32 28 40 47 46 34 23 7 11 8 7 19 34 13 21 18 28 21
33 31 32 34 31 18 18 14 4 24 43 61 30 14 33 44 27 17 62 31 21 34 25 26 27 30 34 36 45 35 33 11 22 23 12 13 30 23 20 13 15 17 18 19
43 28 26 28 28 16 14 10 9 22 34 63 49 32 41 35 30 13 60 22 15 21 29 20 20 20 24 23 38 42 28 29 32 7 11 13 14 23 6 11 19 18 15 19
39 42 26 25 24 14 10 9 7 21 35 53 52 60 56 40 27 13 40 29 23 26 7 11 10 10 6 32 25 25 16 7 3 10 11 19 6 27 13 15 18 16 21 29
33 40 34 30 24 17 18 28 17 28 40 57 46 48 37 30 28 22 30 9 14 24 21 5 9 10 9 9 11 16 12 25 13 19 14 35 47 17 16 25 23 24 24 27
30 33 36 38 27 21 22 25 15 14 23 18 29 29 33 16 15 15 20 17 13 17 13 12 7 2 34 18 15 11 6 28 27 26 46 38 31 29 30 31 30 31 29 26
30 31 37 41 29 23 22 26 24 20 16 15 41 42 23 22 15 11 12 13 16 21 3 16 4 11 13 29 30 9 14 14 13 16 47 23 39 35 35 36 35 32 33 29
29 32 36 40 32 17 16 6 2 14 19 17 9 14 23 30 20 15 8 7 4 11 7 8 29 50 27 8 8 21 38 31 39 33 28 49 45 38 36 38 36 32 30 26
30 32 36 39 34 19 16 9 14 28 20 11 10 10 23 30 27 26 16 4 4 4 4 11 11 3 6 2 6 30 31 28 40 39 44 43 39 40 37 37 34 32 28 26
31 34 36 38 22 17 19 18 13 12 11 15 9 11 28 36 25 20 19 16 14 0 9 15 10 14 4 4 31 32 27 36 37 33 26 32 36 40 38 37 34 31 29 28
30 34 28 13 10 9 13 20 14 15 15 15 12 16 10 44 32 28 25 25 9 4 9 7 18 7 10 20 43 37 34 26 33 20 30 36 40 41 38 34 31 29 27 26
29 16 6 11 12 15 5 5 8 12 18 18 13 38 3 25 46 16 19 25 4 9 12 52 9 35 39 46 38 39 27 21 27 33 36 41 40 39 35 31 26 26 26 27
8 7 6 5 1 5 12 13 10 18 12 21 33 42 3 29 24 17 24 9 13 16 28 21 14 15 21 38 39 33 27 20 21 27 33 35 38 37 33 28 25 26 27 26
12 19 19 8 8 12 11 13 8 10 21 21 35 44 34 56 19 20 13 10 10 9 19 8 11 9 39 42 36 32 28 28 30 33 38 36 35 32 29 27 27 28 29 29
8 8 7 9 13 11 13 17 10 10 25 27 41 28 30 7 12 10 8 15 7 3 6 10 1 34 35 38 37 34 34 36 40 39 38 36 35 30 29 29 30 32 29 25
7 7 9 10 13 14 15 19 19 25 31 23 44 38 23 12 10 6 9 10 6 14 14 22 18 39 42 38 36 40 43 43 42 41 40 37 34 32 30 32 34 31 28 24
6 8 10 17 32 22 21 13 21 16 29 22 39 27 31 16 11 9 5 7 11 12 18 5 47 49 51 46 44 45 48 45 43 40 39 36 35 34 34 32 30 28 26 23
7 12 13 27 28 18 26 4 19 23 51 16 28 12 9 12 8 10 11 11 12 12 14 40 48 47 47 52 49 52 49 46 43 38 36 36 36 35 34 31 28 26 24 22
9 16 25 39 36 30 15 16 9 19 3 12 9 4 11 8 10 15 10 21 19 37 41 35 46 54 53 50 55 54 50 45 43 41 38 35 33 34 34 33 28 25 22 21
Wind_Direction_850mb
303 309 314 316 319 326 318 279 265 174 170 192 221 230 242 259 277 186 261 283 293 257 226 198 232 208 213 198 223 207 234 249 228 203 204 212 239 220 234 245 250 68 14 126
303 312 314 321 326 335 339 270 233 184 189 224 225 226 249 252 255 245 205 255 267 291 249 216 202 238 215 184 218 201 229 243 225 210 199 198 225 231 247 288 51 31 54 1
311 315 317 322 319 321 329 279 224 165 210 239 267 257 216 244 247 254 248 270 287 256 274 251 207 226 214 191 224 228 234 261 175 189 230 303 211 226 319 183 95 301 74 172
322 319 320 319 309 307 315 242 254 360 193 225 234 258 262 211 240 227 242 246 262 262 246 246 227 219 229 201 202 239 235 197 73 11 307 72 64 66 334 316 84 195 125 113
342 336 328 325 307 297 262 284 329 343 297 218 208 242 262 267 218 229 210 234 236 233 259 243 215 217 232 204 201 220 224 188 146 186 240 141 123 128 264 274 14 34 131 158
4 347 342 333 306 325 282 322 328 303 289 282 246 217 242 260 243 223 235 246 219 230 230 241 227 214 217 188 208 204 220 226 214 186 186 168 203 182 207 131 69 57 70 115
351 351 338 334 318 278 304 304 322 291 277 260 255 235 218 232 249 239 244 237 257 238 222 247 235 230 218 188 204 207 211 224 235 221 207 192 77 72 156 80 74 54 103 107
307 317 329 327 322 295 291 294 297 294 280 281 303 292 219 209 225 242 268 294 227 248 274 270 250 245 208 183 195 203 206 217 228 174 224 17 50 70 145 136 112 111 107 111
288 294 298 310 319 308 285 288 289 272 287 252 317 336 330 238 224 240 234 241 236 245 256 233 232 229 175 185 191 210 211 211 227 158 131 143 346 307 36 4 93 98 112 130
326 292 296 305 312 313 292 273 290 283 278 271 310 34 310 318 351 341 310 206 197 217 240 226 220 227 193 180 196 200 219 191 243 234 203 77 169 219 282 286 108 104 125 141
339 325 313 310 312 310 286 235 233 286 289 285 285 279 290 317 33 34 283 305 244 210 227 244 229 212 188 147 198 230 208 178 230 175 110 115 358 321 313 110 138 127 122 133
332 337 311 310 307 301 263 280 307 294 278 272 291 283 275 264 256 206 283 298 359 20 346 43 1 324 253 191 193 210 189 115 91 61 133 164 208 236 120 158 129 136 140 135
321 330 331 313 301 296 263 263 285 319 294 293 271 265 283 243 251 249 259 74 342 30 53 59 42 301 323 36 310 123 86 76 119 111 167 164 165 170 143 137 135 128 133 135
312 320 324 323 301 291 277 268 236 295 294 285 269 247 243 247 233 245 242 278 295 290 90 101 90 346 13 18 290 337 27 140 117 113 164 162 145 155 135 126 131 132 132 139
306 310 316 324 310 293 287 273 248 242 263 308 308 309 257 227 213 227 223 229 267 295 256 100 71 21 51 250 210 270 43 286 137 111 155 150 149 142 141 138 136 135 128 122
298 304 310 319 317 293 339 270 289 222 245 281 277 307 229 208 203 222 220 256 203 244 228 93 139 160 192 270 130 135 354 68 105 117 128 132 137 140 142 138 135 132 128 127
294 299 303 312 314 273 239 270 194 205 185 246 263 232 217 204 199 218 232 244 214 110 234 208 139 192 90 62 336 85 92 110 111 111 121 125 136 138 137 135 130 128 128 127
295 300 305 308 290 259 267 254 255 188 233 256 265 257 163 194 202 202 233 282 278 30 95 1 274 146 60 351 123 151 126 118 120 118 132 140 137 136 134 134 138 136 133 130
303 302 306 273 234 224 205 238 266 244 230 295 240 251 206 181 190 198 180 184 235 244 117 341 23 194 193 201 139 150 148 145 147 126 135 142 143 142 144 148 147 143 141 142
309 308 226 215 145 223 265 193 179 210 218 233 256 252 348 196 191 145 190 198 188 196 194 133 141 261 138 142 150 148 155 145 157 142 147 148 148 151 155 156 152 151 154 152
345 287 336 342 171 191 206 211 206 213 215 215 241 245 161 275 203 158 193 196 215 181 209 181 184 220 142 134 139 147 154 159 164 157 152 156 155 155 158 155 148 151 155 154
316 300 304 283 230 220 240 183 181 250 228 203 211 225 182 245 209 177 202 191 197 252 134 181 224 75 127 135 143 151 155 155 152 150 152 151 153 155 155 149 151 154 151 150
292 258 266 217 206 235 224 187 183 219 223 204 193 215 217 151 208 72 161 234 195 216 182 193 76 128 133 137 145 149 152 151 143 146 145 148 147 149 150 150 153 150 149 154
244 245 245 229 196 223 220 213 198 221 297 189 192 198 215 154 188 142 296 195 226 196 218 225 144 146 142 144 147 151 146 142 146 145 145 146 144 144 148 153 152 151 153 157
259 244 239 229 246 280 246 169 157 174 264 205 192 193 193 181 218 161 237 175 188 206 218 54 133 147 147 148 153 150 143 144 146 147 147 145 144 148 150 151 150 154 155 156
251 240 263 270 291 291 328 226 129 164 250 207 216 206 181 208 196 131 217 193 211 210 124 128 140 147 149 150 149 143 145 148 147 146 146 146 150 153 151 150 153 156 158 158
247 245 255 278 290 282 303 321 325 257 232 181 176 275 175 40 292 151 218 218 99 105 120 138 148 150 151 149 144 144 146 147 145 146 147 149 150 152 152 153 156 158 159 158